Temperature
17 18 18 17 17 17 17 17 17 17 17 18 17 18 18 18 17 17 17 17 17 18 18 18 18 17 17 17 17 17 17 17 17 17 17 16 16 16 16 16 16 16 16
18 18 18 17 17 17 17 17 17 17 17 17 17 17 17 17 17 17 17 17 17 17 17 17 17 17 17 17 17 17 17 17 17 17 17 16 16 16 16 16 16 16 16
17 17 17 17 17 17 17 17 17 17 17 17 17 17 17 17 17 17 17 17 17 17 17 17 17 17 17 17 17 17 17 17 17 17 17 17 16 16 16 16 16 16 16
17 17 17 17 17 17 17 17 17 17 17 17 17 17 17 17 17 17 17 17 17 17 17 17 17 17 17 17 17 17 17 17 17 17 17 16 16 16 16 16 16 16 16
17 17 17 17 17 16 16 16 16 16 16 17 17 17 17 17 17 17 17 17 17 17 17 17 17 17 17 17 17 17 17 17 16 17 16 16 16 16 16 16 16 16 16
17 17 17 17 16 16 16 16 16 16 16 16 16 17 17 17 17 17 17 17 17 17 17 16 16 16 16 16 16 16 16 16 16 16 16 16 16 16 16 16 16 16 16
17 16 16 16 16 16 16 16 16 16 16 16 16 17 17 17 17 17 17 17 17 16 16 16 16 16 16 16 16 16 16 16 16 16 16 16 16 16 16 16 16 16 16
16 16 16 16 16 16 16 15 16 16 16 16 16 16 17 17 17 17 17 17 16 16 16 16 16 16 16 16 16 16 16 16 16 16 16 16 16 16 16 16 16 16 16
16 16 16 16 16 15 15 15 15 15 15 16 16 16 16 16 17 17 17 17 16 16 16 16 16 16 16 15 15 15 15 15 15 15 16 16 16 16 16 16 16 16 16
16 16 16 16 16 15 15 15 15 15 15 15 15 16 16 16 16 16 16 16 16 16 16 16 15 15 15 15 15 15 15 15 15 15 15 15 15 15 15 15 15 15 15
16 16 15 15 15 15 15 15 15 15 15 15 15 15 15 16 16 16 16 16 16 16 15 15 15 15 15 15 15 15 15 15 15 15 15 15 15 15 15 15 15 15 15
16 16 15 15 15 15 15 15 15 14 14 15 15 15 15 15 15 15 15 16 16 16 15 15 15 15 15 15 14 14 14 14 14 14 15 15 15 15 15 15 15 15 15
16 16 15 15 15 15 14 14 14 14 14 14 14 14 14 14 15 15 15 15 15 15 15 15 15 15 15 14 14 14 14 14 14 14 14 14 15 15 15 15 15 15 15
16 16 16 15 15 14 14 14 14 14 14 14 14 14 14 14 14 14 14 14 14 15 15 15 15 15 14 14 14 14 13 13 13 13 14 14 14 14 14 15 15 15 15
16 16 15 15 14 14 14 14 14 14 14 13 13 14 14 14 14 14 14 14 14 14 14 15 14 14 14 14 13 13 13 13 13 13 13 13 14 14 14 14 14 14 14
16 16 15 15 14 14 14 14 14 14 13 13 13 13 13 13 13 13 13 13 13 13 13 14 14 14 14 13 13 13 13 13 13 13 13 13 13 13 14 14 14 14 14
16 16 15 15 14 14 14 14 14 14 13 13 13 13 13 13 13 13 13 13 13 13 13 13 13 13 13 13 13 13 12 12 12 12 13 13 13 13 13 13 14 14 14
16 15 15 15 15 14 14 14 14 14 14 13 13 13 13 13 13 13 13 13 13 13 13 13 13 13 13 13 13 13 12 12 12 12 12 13 13 13 13 13 13 13 13
16 15 15 15 15 14 14 14 14 14 13 13 13 13 13 13 13 13 13 12 12 12 12 12 12 12 13 13 13 13 12 12 12 12 13 13 13 13 13 13 13 13 13
16 15 15 15 15 15 14 14 14 14 14 13 13 13 13 13 13 13 12 12 12 12 12 12 12 12 13 13 13 12 12 12 12 12 12 12 12 12 12 12 12 12 13
16 16 15 15 15 15 15 14 14 14 14 14 14 13 13 13 13 13 12 12 12 12 12 12 12 12 12 12 12 12 12 12 12 12 12 12 12 12 12 12 12 12 12
16 15 15 15 15 15 15 15 15 15 14 14 14 14 13 13 13 13 13 13 12 12 12 12 12 12 12 12 12 11 11 11 11 12 11 12 12 12 12 12 12 12 12
16 16 15 15 15 15 15 15 15 15 15 14 14 14 13 13 13 13 13 13 12 12 12 12 12 12 12 12 11 11 11 11 11 11 11 11 11 11 12 12 12 12 12
16 16 15 15 15 15 15 15 15 15 15 15 14 14 14 14 13 13 13 13 12 12 12 12 12 12 12 12 11 11 11 11 11 11 11 11 11 11 11 12 12 12 12
16 16 15 15 15 15 15 15 15 15 15 15 15 14 14 14 14 13 13 13 13 12 12 12 12 12 12 11 11 11 10 10 10 11 11 11 11 11 11 12 12 12 12
16 16 15 15 15 15 15 15 15 15 14 14 14 14 14 14 14 13 13 13 13 13 12 12 12 11 11 11 11 11 11 10 10 10 11 11 11 11 11 11 11 11 12
Wind_Speed
4 5 4 4 4 3 3 1 2 2 2 2 4 4 4 5 3 4 10 12 13 12 11 10 10 10 11 11 11 11 11 11 10 10 9 9 9 9 9 9 9 9 9
5 5 4 3 4 4 4 1 1 0 0 1 2 2 3 4 4 3 6 9 11 12 11 11 11 11 11 12 13 13 13 12 12 12 11 10 10 10 10 10 10 10 10
7 5 4 3 3 4 4 2 1 1 1 1 2 2 2 2 2 2 0 4 8 11 12 11 11 12 12 12 13 14 14 14 14 13 13 12 12 12 12 12 11 11 11
7 5 3 3 4 4 3 2 1 0 0 1 1 2 1 2 2 3 3 3 4 5 11 12 12 12 13 13 13 13 13 14 15 15 15 14 14 14 14 14 13 13 13
7 5 3 4 4 3 2 1 3 2 2 2 3 3 2 2 2 3 2 3 3 3 6 11 13 12 13 13 14 14 13 14 14 14 15 15 15 15 16 16 16 15 15
6 6 5 3 2 2 2 3 2 0 2 2 4 2 3 2 1 1 2 3 4 4 4 7 9 10 12 13 13 13 13 12 13 14 14 15 15 16 17 18 18 18 17
6 4 4 2 1 3 3 2 1 1 2 0 2 3 3 4 4 2 1 1 0 0 1 4 4 3 7 11 11 11 12 12 13 14 14 15 16 17 18 19 20 20 20
6 5 4 3 2 3 3 2 2 2 2 1 2 3 1 1 1 3 3 3 2 2 1 2 3 3 2 5 7 9 9 10 11 13 14 15 16 17 18 20 21 22 22
5 4 4 3 2 2 3 1 0 1 2 2 1 2 3 3 1 1 1 3 3 1 1 1 2 3 3 3 5 5 6 6 7 9 12 14 15 17 18 20 20 21 23
5 5 5 4 1 1 3 1 3 2 1 2 0 1 1 2 2 1 1 2 2 2 1 1 1 1 1 4 6 6 5 4 4 5 8 11 14 15 17 19 21 21 21
5 5 5 4 2 1 3 3 3 2 2 2 2 1 1 1 3 2 1 1 2 1 2 1 0 1 0 3 6 6 5 3 3 3 5 7 10 13 16 17 19 21 22
4 5 6 4 2 2 4 3 1 1 2 3 3 3 2 2 2 2 2 2 2 1 1 1 1 2 2 2 5 5 4 4 3 4 5 6 8 10 13 15 16 18 20
5 5 5 4 3 3 3 3 2 1 1 1 2 3 3 3 3 3 3 3 3 3 2 2 3 3 2 4 6 4 4 5 5 5 6 7 8 9 11 13 14 15 17
6 7 6 5 4 4 3 3 1 3 3 1 2 1 2 3 3 2 2 3 4 4 3 1 1 2 2 3 5 3 4 7 8 8 9 10 10 11 11 11 13 14 15
7 8 6 6 5 4 3 3 2 1 3 2 2 2 2 2 2 2 2 2 3 4 4 2 1 1 1 2 5 5 6 8 10 12 13 14 13 13 13 12 13 14 14
6 8 7 6 5 5 4 3 3 4 4 3 3 2 1 3 2 2 2 2 2 3 4 3 3 1 1 4 4 4 8 10 13 17 19 18 16 15 15 15 15 15 15
6 6 6 6 6 6 5 4 4 3 4 4 4 3 3 3 2 3 3 3 3 2 4 4 4 3 3 4 5 8 11 12 14 18 20 20 19 18 17 17 17 16 16
6 7 7 7 7 7 7 6 6 5 5 5 5 4 4 5 4 4 4 4 4 4 4 6 5 5 6 5 5 5 8 11 12 13 15 18 20 20 19 18 18 18 18
8 7 7 7 7 6 6 6 6 5 5 5 5 5 5 5 5 4 4 5 4 5 3 5 6 5 5 6 5 5 7 6 11 14 15 18 20 21 21 21 21 21 20
8 8 7 7 7 7 7 7 7 6 6 6 6 6 6 6 6 5 6 6 5 5 5 6 6 6 5 5 3 4 5 4 6 9 10 10 15 21 24 24 24 23 23
10 8 8 8 7 7 8 8 7 8 7 7 6 6 7 8 7 6 6 4 4 4 5 5 6 5 5 4 4 4 5 5 6 5 5 6 6 7 12 19 24 25 25
9 8 9 8 9 9 9 9 7 5 5 6 7 7 8 8 11 12 12 11 9 7 7 6 6 6 6 6 5 5 5 5 6 4 4 6 5 6 6 11 16 20 23
9 8 9 9 9 8 9 10 10 6 6 6 7 7 9 9 8 9 12 15 14 16 14 10 10 10 9 7 6 7 6 7 7 6 7 8 7 8 7 15 17 18 20
9 8 8 9 8 10 13 14 12 8 7 8 8 9 8 9 9 8 7 8 10 11 14 13 12 13 12 10 9 8 8 8 9 8 8 10 8 8 9 9 16 17 19
8 9 8 9 9 10 14 15 13 7 8 10 11 11 11 10 12 12 9 9 9 9 13 17 18 18 19 18 12 7 7 8 10 8 7 8 8 7 7 7 11 18 20
8 8 8 9 9 9 13 16 15 8 9 9 9 11 15 15 14 14 11 10 11 10 10 10 9 12 14 15 18 13 11 10 10 9 7 7 7 6 6 6 6 7 10
Wind_Direction
129 120 111 116 125 140 131 134 72 42 17 360 329 344 354 8 12 89 142 165 170 175 181 188 194 195 195 197 199 197 195 191 187 187 187 187 185 182 180 178 176 171 166
128 126 131 130 122 117 112 133 124 115 330 308 309 321 324 330 354 43 138 168 180 184 189 196 200 203 203 204 206 205 204 200 196 196 197 197 195 193 192 191 188 186 182
137 143 137 135 126 133 144 141 175 203 219 235 257 286 272 274 314 343 174 181 191 197 197 201 207 209 209 210 211 210 209 207 205 202 203 206 205 203 202 201 198 195 194
146 150 132 133 140 154 160 158 186 227 339 301 279 279 274 209 211 233 239 212 203 198 199 207 214 216 216 215 215 214 215 214 214 210 209 211 213 212 211 210 207 204 203
157 141 127 126 163 161 154 134 86 23 346 337 284 241 251 217 200 226 209 219 205 205 193 199 213 216 216 217 217 217 218 219 216 216 217 217 217 217 217 216 215 213 211
141 133 129 138 158 115 95 79 88 244 271 278 294 297 258 225 208 202 244 215 193 209 196 186 200 215 218 219 220 220 221 220 219 221 223 224 224 222 222 222 221 219 217
131 127 114 139 118 101 99 100 61 281 257 298 307 288 239 201 170 164 195 345 95 84 142 158 170 195 213 219 221 223 224 226 227 227 228 229 230 229 229 228 226 223 222
152 151 134 145 110 114 118 89 58 327 324 33 332 315 291 137 264 168 161 176 95 34 6 139 158 193 222 188 203 213 221 229 234 233 234 233 233 235 235 233 230 227 226
143 115 126 123 130 157 137 144 156 17 350 333 25 7 348 25 343 122 132 100 99 54 329 343 187 192 204 171 162 184 205 223 236 242 243 241 240 239 240 238 237 233 231
144 139 131 124 120 107 122 155 97 357 323 317 29 106 87 59 339 351 301 115 173 193 210 304 344 283 194 149 143 144 165 193 229 250 252 252 246 242 242 242 241 238 236
155 147 133 126 137 114 104 79 76 12 353 359 351 353 68 190 229 251 310 327 268 198 172 176 229 283 320 152 144 140 162 183 219 252 267 267 259 249 246 246 246 244 241
168 154 142 134 140 117 118 114 118 110 58 29 355 345 350 336 331 336 324 312 306 286 165 153 197 226 236 166 132 135 164 188 231 260 272 277 274 264 256 252 252 252 248
160 148 138 139 136 128 137 135 162 108 91 50 318 330 353 342 352 355 338 329 333 304 244 203 190 190 221 129 137 154 194 209 230 252 268 275 276 273 265 257 256 256 254
144 142 138 154 153 161 158 132 202 177 149 185 272 21 318 308 339 338 331 329 316 309 297 250 119 134 117 137 160 202 239 236 235 245 258 267 270 270 267 263 259 257 255
141 146 152 162 165 167 154 151 226 173 143 206 259 212 244 292 288 310 316 311 312 313 315 335 32 100 161 211 197 231 259 252 240 243 253 259 261 262 262 263 261 259 257
127 149 161 168 170 170 178 193 228 189 175 211 229 234 271 290 324 305 288 288 286 288 297 316 315 319 0 306 271 284 292 276 257 251 252 252 252 253 254 256 258 258 257
148 163 174 179 180 184 189 195 239 204 194 226 247 228 226 263 283 305 297 291 283 286 291 298 307 313 297 270 271 270 274 269 264 257 250 247 245 247 249 251 253 255 254
173 181 186 191 197 194 192 198 226 225 208 217 229 234 236 248 228 255 279 284 281 271 263 278 286 285 275 263 247 245 266 275 275 275 253 242 239 241 244 248 251 252 252
189 192 190 197 210 203 196 205 220 234 228 230 231 230 235 245 244 246 259 273 284 288 285 282 284 276 270 267 258 259 264 268 276 278 262 243 238 239 243 246 249 249 250
193 195 195 201 209 212 207 206 214 225 232 239 237 235 238 240 238 238 250 251 261 275 277 273 271 273 268 267 267 265 274 270 276 287 289 270 245 240 242 245 247 248 248
200 196 199 205 210 217 217 209 210 219 220 233 240 236 237 235 234 231 250 263 280 278 283 284 284 289 287 303 296 292 290 290 279 276 278 278 267 248 246 248 248 249 247
205 199 202 209 214 223 207 196 200 233 230 233 238 240 245 232 223 222 232 238 238 248 258 268 278 279 285 291 297 297 292 292 290 291 305 294 291 277 266 263 252 246 243
203 207 206 211 217 212 194 187 195 215 245 254 252 247 253 251 225 221 226 234 240 243 240 245 259 265 272 278 287 290 285 284 281 283 289 281 271 270 265 269 268 259 243
202 209 214 217 220 215 196 195 197 213 237 248 253 252 248 252 257 243 242 237 232 236 234 235 240 249 255 257 258 263 270 275 269 263 253 263 262 259 264 262 260 256 247
202 209 215 221 223 221 199 199 195 214 231 241 245 247 244 242 239 232 235 245 252 254 255 249 232 236 243 250 252 261 265 270 275 271 257 260 262 261 260 259 256 252 247
205 212 219 222 225 225 204 202 200 221 236 243 243 241 241 240 240 226 228 237 246 249 257 270 259 251 249 251 246 238 244 254 264 271 261 261 268 271 275 262 260 261 252
Height
1562 1563 1564 1565 1566 1567 1568 1569 1570 1570 1571 1572 1573 1574 1575 1575 1576 1577 1577 1578 1579 1580 1581 1582 1583 1584 1585 1587 1588 1590 1591 1592 1594 1595 1596 1598 1599 1601 1602 1604 1605 1606 1607
1561 1562 1563 1565 1566 1567 1567 1568 1569 1569 1570 1571 1571 1572 1573 1574 1575 1576 1576 1577 1578 1579 1579 1581 1582 1583 1584 1586 1587 1588 1590 1591 1592 1594 1595 1597 1598 1600 1601 1603 1604 1605 1607
1560 1561 1563 1564 1565 1566 1567 1567 1568 1569 1569 1570 1571 1571 1572 1572 1573 1574 1575 1576 1576 1577 1578 1579 1580 1581 1582 1584 1585 1586 1588 1589 1591 1592 1594 1596 1597 1599 1600 1602 1603 1604 1605
1559 1560 1562 1563 1564 1565 1566 1567 1567 1568 1569 1569 1570 1570 1571 1571 1572 1572 1573 1574 1575 1576 1576 1577 1578 1579 1580 1581 1583 1584 1586 1587 1589 1590 1592 1594 1595 1597 1598 1600 1601 1603 1604
1558 1560 1561 1562 1564 1565 1566 1567 1566 1567 1568 1568 1568 1569 1570 1570 1571 1572 1572 1573 1574 1574 1575 1575 1576 1577 1578 1579 1580 1581 1583 1585 1586 1587 1589 1591 1592 1594 1596 1598 1599 1600 1602
1557 1559 1560 1562 1563 1564 1565 1565 1566 1566 1567 1567 1568 1568 1568 1569 1570 1570 1571 1572 1572 1573 1573 1574 1574 1574 1575 1576 1577 1579 1580 1581 1583 1585 1586 1588 1589 1591 1593 1595 1596 1598 1599
1556 1558 1560 1561 1562 1563 1564 1564 1565 1566 1567 1567 1567 1567 1567 1568 1568 1569 1570 1571 1571 1572 1572 1572 1572 1573 1573 1574 1575 1576 1577 1578 1580 1581 1583 1584 1586 1587 1589 1591 1593 1594 1596
1556 1558 1559 1560 1561 1562 1562 1563 1564 1564 1566 1566 1566 1566 1567 1568 1568 1569 1569 1570 1570 1570 1571 1571 1571 1571 1571 1571 1572 1573 1574 1575 1576 1577 1578 1580 1582 1583 1585 1587 1589 1590 1592
1555 1557 1558 1559 1560 1561 1561 1562 1562 1563 1564 1565 1566 1567 1567 1567 1567 1569 1569 1569 1569 1569 1570 1570 1570 1570 1570 1570 1569 1570 1570 1571 1572 1573 1574 1576 1577 1579 1581 1582 1584 1586 1587
1554 1555 1556 1557 1558 1559 1560 1561 1561 1562 1563 1564 1565 1566 1566 1567 1567 1568 1568 1568 1568 1568 1568 1568 1568 1568 1568 1567 1567 1567 1568 1568 1569 1570 1570 1571 1573 1574 1576 1577 1579 1580 1582
1553 1554 1555 1556 1557 1558 1558 1559 1560 1561 1562 1563 1564 1565 1565 1566 1566 1567 1567 1567 1567 1567 1567 1567 1567 1566 1566 1566 1565 1565 1565 1566 1566 1566 1567 1567 1568 1570 1571 1572 1573 1574 1576
1552 1553 1554 1554 1555 1556 1557 1557 1558 1560 1560 1561 1562 1563 1564 1565 1565 1566 1566 1566 1566 1566 1565 1565 1565 1565 1565 1564 1564 1563 1563 1563 1563 1563 1563 1564 1564 1565 1566 1567 1568 1569 1570
1550 1551 1553 1553 1554 1555 1555 1556 1558 1558 1559 1560 1561 1562 1562 1563 1564 1564 1565 1564 1564 1564 1564 1563 1563 1563 1563 1562 1561 1561 1560 1560 1560 1559 1559 1559 1560 1560 1561 1562 1562 1563 1564
1549 1550 1551 1552 1553 1554 1555 1555 1557 1558 1558 1558 1560 1560 1561 1562 1562 1563 1563 1563 1563 1562 1562 1562 1561 1561 1561 1560 1559 1559 1557 1557 1556 1555 1555 1555 1555 1555 1556 1556 1557 1557 1558
1548 1548 1549 1551 1552 1553 1554 1555 1556 1556 1557 1557 1558 1559 1559 1560 1561 1561 1561 1562 1562 1561 1560 1560 1560 1559 1558 1558 1557 1555 1554 1553 1552 1551 1551 1550 1550 1550 1550 1551 1551 1552 1552
1546 1547 1548 1549 1550 1551 1552 1553 1554 1555 1555 1556 1556 1557 1557 1558 1558 1559 1559 1559 1559 1559 1558 1558 1558 1557 1556 1555 1554 1552 1551 1549 1548 1547 1547 1546 1545 1545 1545 1545 1545 1546 1547
1544 1545 1546 1548 1549 1550 1551 1552 1553 1554 1554 1554 1555 1555 1555 1556 1556 1556 1556 1557 1557 1556 1555 1555 1554 1553 1552 1551 1550 1548 1547 1545 1544 1543 1542 1542 1541 1540 1540 1540 1540 1540 1540
1541 1543 1544 1546 1547 1548 1549 1550 1550 1552 1552 1553 1553 1553 1553 1554 1553 1553 1553 1553 1553 1553 1553 1551 1550 1550 1549 1548 1546 1544 1543 1542 1541 1540 1538 1537 1537 1536 1535 1534 1534 1534 1534
1539 1541 1542 1543 1545 1546 1547 1548 1548 1549 1550 1550 1550 1550 1550 1550 1550 1550 1550 1550 1550 1550 1549 1548 1546 1546 1545 1544 1542 1541 1540 1538 1537 1536 1534 1533 1532 1531 1530 1529 1529 1528 1528
1536 1538 1539 1541 1542 1543 1544 1545 1546 1546 1547 1547 1548 1547 1547 1547 1547 1547 1547 1546 1546 1545 1545 1544 1542 1542 1541 1540 1539 1537 1535 1534 1533 1532 1530 1529 1527 1526 1525 1524 1524 1523 1522
1533 1535 1536 1538 1539 1540 1541 1542 1543 1543 1544 1544 1544 1544 1544 1544 1543 1543 1543 1543 1542 1541 1540 1539 1538 1537 1537 1535 1534 1532 1531 1529 1528 1527 1526 1524 1523 1521 1520 1519 1518 1517 1517
1530 1532 1533 1534 1535 1537 1538 1539 1539 1540 1540 1540 1540 1540 1540 1539 1539 1539 1539 1538 1538 1536 1535 1534 1533 1532 1531 1531 1529 1528 1526 1524 1522 1522 1520 1518 1518 1516 1514 1513 1512 1512 1511
1526 1527 1529 1530 1531 1532 1534 1535 1535 1536 1536 1536 1536 1535 1535 1535 1535 1534 1533 1533 1532 1531 1531 1530 1528 1527 1526 1525 1524 1522 1520 1519 1516 1515 1514 1511 1511 1509 1508 1507 1507 1506 1505
1521 1523 1524 1526 1527 1528 1528 1529 1530 1531 1530 1530 1530 1530 1530 1530 1530 1529 1529 1528 1526 1525 1525 1523 1522 1521 1520 1519 1518 1517 1515 1512 1510 1509 1508 1505 1504 1503 1502 1502 1501 1500 1499
1516 1517 1519 1521 1521 1522 1523 1524 1525 1525 1525 1524 1525 1524 1524 1524 1524 1524 1523 1521 1520 1519 1519 1518 1516 1514 1513 1513 1512 1511 1508 1506 1503 1502 1502 1501 1498 1497 1496 1495 1494 1494 1492
1511 1512 1514 1515 1516 1517 1518 1519 1519 1519 1519 1518 1518 1519 1519 1518 1518 1517 1516 1515 1513 1512 1512 1511 1509 1508 1506 1505 1505 1503 1502 1500 1497 1495 1495 1496 1493 1492 1489 1488 1488 1487 1486